Dewpoint
64 67 70 73 72 73 73 73 73 73 73 73 74 74 74 73 73 73 73 73 73 73 73 73 73 72 73 73 73 73 73 73 73 72 72 72 71 71 71 71 71 71 70 71 72 71 71 71 71 71 71 71 71 71 71 71 71 71 71 71 72 72 71 71 71 72 72 71 71 71 70 71 71 70 70 70 70 70 69 69 70 68 69 70 70
65 69 70 71 73 73 73 73 73 73 73 73 73 73 73 73 73 72 73 73 73 73 73 73 73 73 72 73 73 73 73 73 72 72 72 71 71 71 71 71 70 70 70 70 71 71 71 71 71 70 71 71 71 71 71 71 70 70 71 71 71 71 71 72 71 72 72 72 72 71 70 70 70 70 70 71 71 71 70 70 70 68 68 69 70
66 68 70 71 73 73 73 73 73 72 73 73 73 73 73 73 73 73 73 73 73 73 73 73 73 73 73 73 73 73 73 73 72 72 71 71 71 71 71 71 70 70 70 71 71 71 71 71 70 70 71 70 70 70 71 71 71 71 71 71 71 71 72 72 72 72 71 72 72 71 71 70 70 70 70 70 71 70 70 70 70 70 69 70 70
66 69 69 71 73 73 73 73 73 73 73 73 73 73 73 73 73 73 73 73 73 73 73 73 73 73 73 73 73 73 73 72 72 71 71 71 71 71 70 70 70 70 70 71 70 70 71 71 71 71 71 71 71 71 71 71 71 71 71 71 71 71 72 72 72 72 71 70 70 70 71 69 69 70 70 70 71 70 70 71 70 70 70 70 70
66 68 69 69 71 72 73 72 72 72 73 73 73 73 72 73 73 73 73 73 73 73 73 73 73 73 73 73 73 72 72 72 72 72 71 71 71 70 70 70 70 70 70 70 70 70 70 70 70 70 70 70 71 71 71 72 72 71 71 71 71 71 71 71 71 71 70 69 70 69 68 68 69 70 70 70 70 70 70 70 69 70 70 70 70
66 67 68 68 69 71 72 72 72 72 73 73 73 72 72 72 73 73 73 73 73 73 73 73 73 73 73 73 73 73 73 72 72 72 71 71 72 71 70 70 71 71 70 70 70 70 70 70 70 70 70 70 69 70 70 70 71 71 71 71 71 70 70 70 70 70 70 69 70 68 68 68 68 68 70 70 70 70 70 69 69 68 68 68 69
65 66 67 67 69 70 72 72 72 72 72 72 72 72 72 72 72 73 73 73 73 73 73 74 73 73 73 73 73 73 72 72 72 72 72 71 71 71 70 70 70 70 70 70 70 70 70 70 70 70 69 69 69 69 69 69 70 71 71 70 70 70 69 70 70 70 69 69 69 67 67 66 66 68 70 69 70 70 70 70 69 69 68 68 68
64 65 66 67 69 70 72 72 72 72 72 71 71 72 72 72 73 73 73 73 73 73 74 73 73 73 73 73 73 72 72 72 72 71 71 71 71 71 70 70 70 70 69 68 70 70 69 70 70 69 68 68 69 69 69 69 69 70 70 70 70 70 70 70 71 70 71 70 67 66 64 66 67 67 69 70 69 69 69 69 69 69 68 68 68
63 64 66 68 68 71 72 72 71 71 71 71 71 72 72 73 73 73 73 73 73 73 73 73 73 73 73 72 72 72 72 72 72 72 72 71 71 71 70 70 70 69 70 70 70 70 70 70 69 68 68 69 70 70 70 70 69 69 69 69 69 70 70 70 71 71 71 68 66 62 63 65 66 67 69 70 70 69 69 68 68 69 69 68 68
63 65 66 68 69 71 71 72 71 71 71 71 72 72 73 73 73 73 73 73 73 73 73 73 73 73 72 72 72 71 71 71 71 71 71 71 71 71 70 70 70 69 69 70 70 69 70 69 68 68 69 71 71 70 70 70 70 69 69 68 69 69 69 70 70 70 67 66 63 64 66 67 65 66 68 69 70 69 69 69 69 68 68 68 68
65 65 65 68 69 72 72 72 72 71 71 71 72 72 73 73 73 73 73 73 73 73 73 73 73 72 72 72 72 71 70 70 70 70 70 70 71 70 70 70 69 69 69 68 68 70 69 68 69 69 70 71 71 71 70 70 70 70 69 69 69 69 69 69 70 64 65 59 63 65 67 69 66 67 69 69 69 69 68 68 68 68 68 68 68
65 65 66 68 72 72 72 72 71 71 71 72 72 73 73 73 73 73 73 73 73 74 73 73 72 72 72 71 71 70 70 69 68 68 68 69 70 69 69 69 69 68 68 69 69 68 68 68 69 70 71 71 71 71 70 70 70 70 69 69 69 68 69 70 67 64 59 58 61 63 63 64 65 66 68 68 69 68 68 68 68 68 68 68 68
66 66 68 70 70 72 72 71 71 71 72 71 72 73 73 73 73 73 73 73 73 73 73 73 72 72 71 71 70 70 70 69 68 67 67 69 70 69 69 69 68 68 68 69 68 67 68 69 69 70 71 71 71 71 71 70 70 69 69 69 69 69 69 69 64 63 54 55 59 62 62 64 65 67 68 68 68 68 68 68 67 67 67 67 68
68 68 68 68 69 71 72 71 71 72 72 72 73 73 73 73 73 73 73 73 73 73 73 72 72 71 71 70 70 70 69 69 69 69 68 68 69 69 69 68 68 68 68 68 68 68 68 69 69 70 71 71 71 71 70 70 69 69 69 69 68 68 68 68 66 62 53 51 62 64 65 66 65 67 66 67 67 67 67 67 67 67 67 67 67
67 67 68 68 68 68 71 71 72 72 72 73 73 73 73 73 74 74 73 73 73 73 73 72 72 71 71 71 71 71 71 70 69 68 68 67 68 68 68 68 68 67 67 68 68 68 68 70 70 71 70 71 71 71 70 70 69 69 69 68 69 68 68 63 61 59 53 56 64 63 63 64 68 67 65 66 66 66 66 66 66 66 67 66 66
69 68 67 68 67 67 68 71 71 72 72 72 73 73 74 74 73 73 73 73 73 73 72 72 71 71 71 71 71 71 70 69 69 69 69 68 67 67 68 67 67 67 67 68 68 69 69 69 69 70 71 70 70 70 70 69 69 69 68 68 69 68 68 68 62 61 57 57 63 63 63 64 67 65 65 65 64 64 65 66 66 66 66 66 66
69 68 67 67 68 67 67 68 70 71 72 72 73 74 73 74 73 74 73 73 73 73 72 72 72 72 72 72 71 70 69 69 69 68 68 68 67 67 67 67 67 67 67 68 69 69 68 68 68 70 70 70 69 70 70 69 69 69 68 68 68 69 68 69 64 61 56 61 62 61 62 62 65 65 65 64 65 65 64 65 65 65 65 65 65
68 67 67 67 67 67 67 68 69 69 70 72 73 73 73 73 73 73 73 73 73 72 72 72 72 72 72 71 71 70 69 69 69 68 67 67 67 67 67 66 67 67 67 67 68 68 67 67 68 69 70 70 70 69 69 69 69 69 68 68 69 69 69 70 64 60 60 63 63 63 63 65 65 65 64 64 64 65 64 65 65 65 65 64 64
68 67 66 67 66 67 67 67 68 67 68 70 71 72 73 73 73 73 73 73 73 72 72 72 72 72 72 71 70 70 70 70 70 69 68 68 67 67 66 67 67 67 67 67 68 67 67 67 68 69 69 70 69 69 69 69 68 68 68 69 68 69 70 68 63 54 57 64 63 63 64 66 65 65 64 65 65 65 66 65 65 64 64 64 63
68 67 66 67 67 66 67 67 67 66 67 68 70 71 73 73 73 73 73 73 73 72 72 72 72 72 72 71 70 70 70 69 70 69 69 68 67 66 67 67 67 67 67 67 68 68 67 68 69 68 69 68 69 70 69 68 68 67 69 69 68 69 65 65 64 56 61 64 63 63 65 65 65 65 65 65 65 65 65 64 64 63 63 63 64
68 67 67 67 67 66 67 67 67 66 66 67 68 70 71 72 72 72 73 73 72 72 72 72 72 72 71 71 71 70 70 70 69 68 69 68 68 67 67 68 67 67 67 68 68 68 67 68 68 69 69 69 70 70 70 69 68 68 69 69 69 66 64 65 62 60 56 64 63 63 66 66 65 66 66 65 65 65 63 62 62 62 62 62 63
66 65 68 68 67 68 68 67 67 68 67 67 67 69 71 71 71 72 71 72 72 72 72 72 72 71 71 71 70 70 69 69 69 70 69 68 68 68 68 68 67 68 68 68 68 67 67 67 67 68 69 70 71 69 69 69 69 69 68 69 68 65 65 65 62 60 62 63 64 66 67 66 66 66 66 65 63 63 62 63 63 62 62 61 61
65 66 67 68 68 68 68 67 68 68 68 67 67 67 69 69 70 71 71 72 72 72 72 71 71 71 70 69 72 72 69 69 69 69 68 68 68 68 68 68 68 68 68 68 68 67 66 67 67 68 68 69 69 68 67 66 67 68 69 68 66 65 66 64 64 61 61 63 63 67 67 67 66 66 65 64 63 62 62 61 61 61 62 61 61
66 66 67 69 68 68 69 68 69 68 67 66 66 67 68 67 68 70 71 71 71 71 71 71 71 71 71 71 71 71 71 70 69 69 70 69 69 69 69 68 68 68 68 68 68 68 67 67 66 67 68 65 65 66 66 65 65 67 66 66 66 66 65 65 62 60 63 65 64 68 68 67 66 66 65 64 64 63 62 61 61 62 61 60 63
66 67 67 68 68 68 69 68 68 68 67 66 65 65 66 65 66 67 70 70 71 70 70 70 71 71 70 71 71 71 70 70 70 70 68 67 68 68 68 68 68 67 69 67 67 62 66 59 61 65 62 62 61 64 64 65 66 65 65 65 64 64 65 65 64 61 61 64 66 69 68 67 66 65 65 64 64 63 62 62 62 61 61 61 61
67 66 66 67 68 67 67 68 68 67 67 65 64 65 66 64 65 67 68 69 70 69 69 70 70 71 71 71 71 71 70 69 70 70 69 69 67 67 67 67 67 67 68 66 64 62 61 59 57 58 59 60 60 61 62 65 64 66 64 65 65 65 64 62 61 63 65 66 68 69 68 68 66 65 65 64 63 63 62 63 62 61 62 62 62
66 66 67 66 67 67 67 68 67 67 66 65 64 65 65 65 65 65 68 67 68 68 67 68 70 71 72 71 72 69 69 69 69 69 68 68 68 67 67 68 67 66 66 67 66 63 60 58 59 59 59 57 56 57 58 59 61 59 63 62 63 61 64 63 61 64 64 65 67 69 68 68 67 66 65 64 63 63 62 61 62 61 63 61 61
66 67 66 67 67 67 67 67 67 66 66 64 64 63 65 65 65 66 66 67 66 66 66 68 69 70 70 71 71 69 68 68 68 68 68 66 65 67 67 67 67 67 64 65 64 64 64 64 62 60 59 58 56 57 57 55 58 60 58 62 62 62 63 63 62 65 65 66 66 69 69 68 67 66 65 64 64 63 63 62 62 62 62 61 60
66 67 66 66 67 67 67 65 66 66 64 64 63 62 64 64 66 65 67 68 68 68 68 68 68 69 70 70 71 71 67 67 66 67 69 69 72 72 72 68 66 65 67 66 65 68 66 64 67 67 66 63 61 58 55 55 62 61 59 57 59 60 62 61 64 64 63 67 66 66 69 68 68 66 66 65 64 64 64 63 62 63 62 61 61
67 67 67 67 67 68 67 65 67 64 65 64 63 64 64 64 65 66 68 67 67 69 70 69 69 67 69 69 70 73 74 70 69 70 67 70 72 72 73 71 72 71 74 70 68 68 68 68 67 66 62 61 59 59 59 56 54 59 57 59 61 60 63 62 63 64 62 66 68 67 69 69 68 67 67 66 65 65 65 63 62 64 62 61 61
67 67 67 66 67 67 66 66 65 66 66 65 63 67 65 65 65 65 66 65 66 68 68 68 68 68 68 71 70 70 73 72 71 70 71 73 72 73 72 72 72 73 72 72 70 69 70 68 69 67 64 63 65 64 62 61 58 54 56 56 61 64 64 65 65 63 63 65 67 68 67 69 68 68 67 67 66 65 65 64 64 63 63 62 62
66 67 66 67 67 67 67 65 65 67 65 64 66 66 67 66 65 66 65 67 69 66 67 67 69 69 68 70 71 71 72 73 73 71 70 71 71 72 71 72 73 73 73 71 72 70 69 68 70 69 69 68 66 65 64 64 63 59 58 57 62 66 68 66 64 65 66 64 65 67 65 68 68 68 67 67 67 66 65 65 64 64 63 63 62
66 67 67 67 67 68 66 66 64 67 66 65 68 66 68 65 65 69 64 68 67 67 67 68 70 69 70 71 71 71 72 74 74 72 70 71 70 71 71 71 71 72 73 72 71 72 71 70 70 69 70 67 66 65 62 62 63 63 63 60 65 65 63 62 64 65 65 66 66 67 67 65 66 68 68 67 67 67 66 65 64 64 64 64 63
66 66 67 67 67 67 66 66 65 65 67 67 69 65 68 66 67 68 65 69 67 67 69 70 70 70 70 71 71 71 71 72 71 71 71 71 70 70 70 72 71 71 72 72 71 71 70 68 67 67 67 65 65 65 65 63 63 63 63 64 63 68 67 66 68 66 66 65 66 67 68 67 66 66 66 67 68 67 67 66 65 64 64 64 64
65 66 66 66 67 66 66 65 65 65 68 67 67 66 68 66 66 66 67 67 67 68 69 70 70 69 69 70 70 70 69 69 70 71 71 70 71 71 69 68 69 70 71 71 71 69 68 68 68 67 68 67 64 64 64 63 63 61 62 64 64 65 65 64 65 65 65 66 67 66 69 68 69 67 65 65 68 68 67 67 66 65 64 64 63
66 67 67 66 66 66 66 65 66 65 68 67 68 69 69 69 67 67 68 68 69 69 69 70 70 69 69 69 69 69 70 70 69 70 70 70 69 70 71 72 71 70 69 72 69 67 67 68 68 68 67 65 64 64 64 64 64 63 65 64 65 65 67 68 68 66 66 66 66 67 66 67 66 68 67 65 65 66 67 67 66 67 65 65 64
66 67 67 66 66 66 66 66 66 66 67 67 69 69 70 69 70 67 67 70 69 69 70 71 69 69 69 68 70 70 70 70 71 70 71 70 69 68 68 69 70 70 72 69 68 67 67 67 68 67 67 65 63 63 65 64 65 66 65 65 66 67 66 65 67 66 68 67 67 66 68 67 67 68 68 67 66 65 66 67 67 67 67 67 67
67 67 67 66 65 65 66 66 67 67 68 67 69 68 70 71 68 68 69 70 69 70 69 70 69 69 70 68 69 70 71 70 70 71 72 70 70 71 70 69 70 70 70 69 68 69 68 68 67 67 65 66 65 65 65 64 65 65 65 65 66 67 66 66 66 67 66 66 66 66 67 67 68 67 67 67 67 66 65 66 67 66 67 67 67
66 67 66 66 65 66 67 67 68 68 68 68 69 68 70 70 69 70 69 69 70 70 72 70 69 69 69 70 69 70 71 69 70 70 71 69 69 70 70 70 70 70 69 69 67 66 67 67 67 67 68 66 65 65 65 65 65 65 64 65 66 66 66 66 66 66 67 66 65 66 67 66 66 66 67 67 68 66 66 65 65 65 65 67 66
67 66 66 66 66 67 67 67 68 68 67 68 66 66 69 66 66 66 67 68 71 70 69 68 69 68 68 68 69 70 68 70 69 70 70 71 69 70 71 69 69 69 69 67 66 65 67 67 67 67 66 66 66 65 65 64 64 65 64 65 65 65 66 67 67 66 66 66 66 65 66 66 67 67 66 67 68 66 66 66 66 64 63 65 66
66 66 66 66 66 66 67 67 68 68 67 66 65 65 65 64 65 64 65 67 66 67 69 68 68 70 68 68 68 69 69 69 69 69 70 69 68 70 70 70 68 67 67 67 68 67 67 68 67 68 66 65 65 66 67 66 65 63 64 63 64 65 65 65 66 66 66 66 66 66 65 66 66 65 65 66 66 67 67 66 66 64 63 63 65
66 66 66 66 67 68 67 66 66 66 66 65 65 65 65 64 64 64 65 65 65 65 66 68 69 68 69 69 69 69 68 69 70 69 70 69 69 70 70 69 69 69 69 69 68 68 67 66 67 66 66 65 65 66 65 65 63 62 61 60 60 62 64 64 64 65 66 66 66 65 65 65 66 65 65 66 66 66 66 66 67 65 64 65 64
64 65 65 68 68 67 66 66 65 65 66 66 66 65 65 65 65 65 65 65 66 66 67 68 69 69 70 69 70 71 69 68 70 69 69 71 72 70 70 71 70 70 69 68 67 67 68 67 67 66 65 65 64 65 66 66 62 63 63 61 58 57 59 63 64 65 66 66 66 65 65 65 65 66 66 64 64 65 65 66 66 65 65 65 66
66 63 64 66 66 66 66 66 66 66 66 66 66 65 66 66 67 66 66 66 65 65 66 70 70 70 69 69 70 71 69 69 69 68 69 71 71 70 70 69 69 71 69 69 67 66 68 68 67 67 66 63 63 64 65 66 66 64 59 59 58 58 55 56 61 65 66 66 66 65 66 65 65 66 67 66 64 65 65 65 66 66 66 66 66
66 63 64 67 65 65 66 66 66 66 65 66 65 65 66 65 66 66 67 66 66 66 65 67 69 68 68 69 69 69 70 70 71 70 69 70 70 71 69 69 70 70 69 68 67 66 65 65 64 65 66 65 64 64 65 66 65 66 63 61 58 56 55 58 59 59 65 65 66 65 65 65 65 65 66 65 65 65 65 64 64 65 66 66 65
65 64 65 66 65 65 65 66 66 66 65 65 65 65 66 66 64 64 63 64 63 64 63 64 66 67 67 69 68 69 68 69 71 68 68 69 70 69 69 69 68 69 69 68 67 67 66 64 63 64 64 65 65 63 62 64 66 66 66 64 63 60 58 59 59 56 65 65 65 65 65 66 66 65 65 65 65 65 65 65 65 65 65 66 66
66 66 65 65 65 66 66 65 65 66 66 65 66 66 65 64 64 64 63 63 62 63 65 67 67 68 69 69 70 72 68 68 69 68 68 68 69 68 68 68 67 68 68 67 66 66 65 64 64 64 63 64 64 62 61 61 62 63 65 66 65 64 64 60 58 59 57 62 64 65 65 65 64 63 63 64 65 65 65 65 66 65 65 66 66
65 64 63 64 65 65 65 65 65 66 66 66 66 66 66 65 65 64 64 65 64 65 66 68 69 68 68 68 69 70 69 68 69 69 68 68 69 69 69 68 68 66 65 66 67 67 66 66 66 65 65 65 64 63 62 62 61 60 62 62 63 64 64 63 62 60 58 56 57 62 64 62 64 64 64 63 64 65 65 65 65 65 66 66 66
64 64 63 64 64 65 65 65 65 66 68 67 66 66 66 66 66 66 65 65 66 66 66 66 68 67 67 68 68 67 69 68 67 69 68 68 68 69 67 67 67 67 64 65 66 65 66 65 65 65 65 64 65 64 63 62 61 61 61 61 61 61 62 62 62 61 59 57 57 58 58 62 64 64 63 65 65 65 65 65 66 66 65 65 65
63 63 64 64 64 64 64 65 65 67 67 67 67 67 67 67 66 64 64 64 63 64 67 66 67 67 67 67 67 69 68 69 71 69 67 65 65 65 65 64 65 65 65 64 64 64 64 64 64 65 65 64 65 64 64 63 63 62 62 62 60 60 59 59 60 61 60 59 57 57 58 58 58 60 63 64 64 64 65 65 65 65 65 65 65
63 64 64 64 64 65 65 65 66 67 67 66 67 66 66 65 64 64 62 62 62 63 66 66 66 66 66 66 67 67 69 68 71 67 66 65 65 64 64 63 64 65 65 64 64 63 64 64 64 64 64 64 64 64 64 63 63 63 62 61 60 59 58 58 58 59 59 58 58 57 58 58 57 58 61 63 63 63 65 66 66 65 64 64 65